Starlink 35129

operational
NORAD ID: 66076 Int'l Des: 2025-235 Owner: SPXS Country: US Constellation: starlink
NOTLE

Über Starlink 35129

Beschreibung wird geladen...

Live-Position

3D-Globus wird geladen...

Nächste Überflüge

Höhenverlauf

Altitude vs Time

uPlot chart will show altitude changes over time

Zweizeiliger Elementsatz

1 66076C 25235V 25293.06854167 .00531190 00000+0 78508-3 0 2936
2 66076 53.1589 188.8503 0005590 294.8047 204.3765 16.03663289 16
Epoch: 20. Okt. 2025 • Age: 19 hours

Aktueller Status

Höhe 266.9 km
Geschwindigkeit 7.75 km/s
Subsatellitenpunkt 38.46°N, 96.49°W
Startdatum 19. Okt. 2025
Alter 1 days
Typ internet

Technische Details

Klassifizierung Payload
Masse 575.00 kg
Trockenmasse 530.00 kg
Gesamtmasse 575.00 kg
Länge 0.30 m
Durchmesser 4.10 m
Spannweite 29.00 m
Form Box + pan
Hersteller SPXS
Bus-Typ Starlink V2MO
Phasenstatus In Orbit
Besitzer/Staat SPXS/US

Große Konstellationen

Loading constellations...